Date String (YYYY-MM-DD hh:mm:ss) UTC,Instrument flags,Ambient pressure (hPa),Sample flow (lpm),Bypass flow (lpm),Sample temperature (°C),Ambient temperature (°C),ASC tube jacket temperature (°C),LED temperature (°C),Box temperature (°C),Sample RH (%),Span deviation,Mass concentration (μg/m³),Mass concentration (μg/m³),Mass concentration (μg/m³)
DateTimeUTC,F1_M11,P_M11,Q1_M11,Q2_M11,T1_M11,T2_M11,T3_M11,T4_M11,T5_M11,U1_M11,ZSPAN_M11,X0_M11,X2_M11,X1_M11
2021-12-02 05:00:00,,0829.0,4.98,0.00,30.1,29.2,00.0,39.1,31.8,08.6,0000.0,0001.06,0000.59,0000.33
2021-12-02 05:01:00,,0829.0,5.00,0.00,30.1,29.2,00.0,39.1,31.8,08.6,0000.0,0001.19,0000.62,0000.34
2021-12-02 05:02:00,,0828.9,5.00,0.00,30.1,29.2,00.0,39.1,31.8,08.6,0000.0,0001.28,0000.64,0000.35
2021-12-02 05:03:00,,0828.9,5.00,0.00,30.1,29.2,00.0,39.0,31.8,08.5,0000.0,0001.29,0000.65,0000.36
2021-12-02 05:04:00,,0828.9,5.00,0.00,30.1,29.2,00.0,39.1,31.8,08.5,0000.0,0001.25,0000.63,0000.36
2021-12-02 05:05:00,,0828.9,5.01,0.00,30.1,29.2,00.0,39.1,31.8,08.4,0000.0,0001.15,0000.59,0000.36
2021-12-02 05:06:00,,0828.9,5.00,0.00,30.1,29.3,00.0,39.1,31.8,08.5,0000.0,0001.07,0000.56,0000.35
2021-12-02 05:07:00,,0828.9,4.99,0.00,30.1,29.3,00.0,39.1,31.8,08.5,0000.0,0001.17,0000.58,0000.35
2021-12-02 05:08:00,,0828.8,5.00,0.00,30.1,29.3,00.0,39.1,31.9,08.4,0000.0,0001.16,0000.57,0000.34
2021-12-02 05:09:00,,0829.0,5.00,0.00,30.1,29.3,00.0,39.1,31.9,08.2,0000.0,0001.18,0000.58,0000.33
2021-12-02 05:10:00,,0828.9,5.01,0.00,30.1,29.3,00.0,39.1,31.9,08.2,0000.0,0002.05,0000.61,0000.33
2021-12-02 05:11:00,,0829.0,5.00,0.00,30.2,29.3,00.0,39.1,31.9,08.2,0000.0,0001.96,0000.55,0000.32
2021-12-02 05:12:00,,0828.8,4.99,0.00,30.2,29.3,00.0,39.1,31.9,08.3,0000.0,0001.83,0000.51,0000.31
2021-12-02 05:13:00,,0828.8,5.01,0.00,30.2,29.3,00.0,39.1,31.9,08.3,0000.0,0001.72,0000.49,0000.29
2021-12-02 05:14:00,,0828.9,5.00,0.00,30.2,29.3,00.0,39.1,31.9,08.3,0000.0,0001.75,0000.50,0000.28
2021-12-02 05:15:00,,0828.9,4.99,0.00,30.2,29.3,00.0,39.1,31.9,08.3,0000.0,0001.88,0000.54,0000.27
2021-12-02 05:16:00,,0828.9,5.01,0.00,30.2,29.3,00.0,39.1,31.9,08.5,0000.0,0001.92,0000.56,0000.27
2021-12-02 05:17:00,,0829.0,4.99,0.00,30.2,29.3,00.0,39.1,31.9,08.5,0000.0,0001.93,0000.56,0000.27
2021-12-02 05:18:00,,0829.0,5.02,0.00,30.2,29.3,00.0,39.1,31.9,08.5,0000.0,0002.36,0000.56,0000.27
2021-12-02 05:19:00,,0829.0,5.00,0.00,30.2,29.3,00.0,39.1,31.9,08.5,0000.0,0002.80,0000.57,0000.28
2021-12-02 05:20:00,,0829.0,5.00,0.00,30.2,29.3,00.0,39.1,31.9,08.5,0000.0,0002.84,0000.57,0000.28
2021-12-02 05:21:00,,0829.0,4.99,0.00,30.2,29.3,00.0,39.2,31.9,08.5,0000.0,0002.00,0000.54,0000.28
2021-12-02 05:22:00,,0829.0,5.00,0.00,30.2,29.3,00.0,39.2,31.9,08.4,0000.0,0001.99,0000.55,0000.28
2021-12-02 05:23:00,,0829.0,4.99,0.00,30.2,29.3,00.0,39.2,31.9,08.4,0000.0,0002.05,0000.58,0000.28
2021-12-02 05:24:00,,0829.0,5.01,0.00,30.2,29.3,00.0,39.2,32.0,08.5,0000.0,0002.03,0000.58,0000.28
2021-12-02 05:25:00,,0829.0,5.00,0.00,30.2,29.3,00.0,39.2,31.9,08.4,0000.0,0001.95,0000.54,0000.28
2021-12-02 05:26:00,,0829.0,5.00,0.00,30.2,29.3,00.0,39.2,31.9,08.4,0000.0,0001.86,0000.51,0000.28
2021-12-02 05:27:00,,0829.0,5.00,0.00,30.2,29.3,00.0,39.2,31.9,08.5,0000.0,0001.83,0000.49,0000.28
2021-12-02 05:28:00,,0829.0,5.00,0.00,30.2,29.3,00.0,39.2,32.0,08.5,0000.0,0001.97,0000.49,0000.28
2021-12-02 05:29:00,,0829.1,5.01,0.00,30.2,29.3,00.0,39.2,31.9,08.6,0000.0,0001.48,0000.46,0000.27
2021-12-02 05:30:00,,0829.0,5.01,0.00,30.2,29.3,00.0,39.2,31.9,08.5,0000.0,0001.10,0000.45,0000.27
2021-12-02 05:31:00,,0829.0,4.99,0.00,30.2,29.3,00.0,39.2,31.9,08.5,0000.0,0001.35,0000.45,0000.27
2021-12-02 05:32:00,,0829.0,5.01,0.00,30.2,29.3,00.0,39.2,31.9,08.4,0000.0,0001.54,0000.46,0000.27
2021-12-02 05:33:00,,0829.0,5.00,0.00,30.2,29.3,00.0,39.2,32.0,08.3,0000.0,0001.54,0000.46,0000.27
2021-12-02 05:34:00,,0829.0,4.98,0.00,30.2,29.3,00.0,39.2,32.0,08.5,0000.0,0001.51,0000.43,0000.27
2021-12-02 05:35:00,,0829.0,5.02,0.00,30.2,29.3,00.0,39.2,31.9,08.5,0000.0,0001.50,0000.43,0000.28
2021-12-02 05:36:00,,0829.0,5.00,0.00,30.2,29.3,00.0,39.2,31.9,08.5,0000.0,0001.58,0000.46,0000.28
2021-12-02 05:37:00,,0829.1,5.00,0.00,30.2,29.3,00.0,39.2,31.9,08.5,0000.0,0001.59,0000.48,0000.29
2021-12-02 05:38:00,,0829.0,4.99,0.00,30.2,29.3,00.0,39.2,31.9,08.5,0000.0,0001.59,0000.49,0000.29
2021-12-02 05:39:00,,0829.1,5.02,0.00,30.2,29.3,00.0,39.2,31.9,08.5,0000.0,0001.48,0000.51,0000.30
2021-12-02 05:40:00,,0829.0,5.00,0.00,30.2,29.3,00.0,39.2,31.9,08.5,0000.0,0001.45,0000.54,0000.31
2021-12-02 05:41:00,,0829.0,4.99,0.00,30.2,29.3,00.0,39.2,31.9,08.5,0000.0,0001.56,0000.60,0000.32
2021-12-02 05:42:00,,0829.0,5.00,0.00,30.2,29.3,00.0,39.2,31.9,08.5,0000.0,0001.32,0000.61,0000.33
2021-12-02 05:43:00,,0829.1,5.01,0.00,30.2,29.3,00.0,39.2,31.9,08.5,0000.0,0001.11,0000.60,0000.34
2021-12-02 05:44:00,,0829.1,5.00,0.00,30.2,29.3,00.0,39.2,31.9,08.5,0000.0,0001.09,0000.59,0000.34
2021-12-02 05:45:00,,0829.0,5.00,0.00,30.2,29.2,00.0,39.2,31.8,08.5,0000.0,0001.13,0000.61,0000.35
2021-12-02 05:46:00,,0829.1,5.01,0.00,30.2,29.2,00.0,39.2,31.8,08.5,0000.0,0001.22,0000.66,0000.36
2021-12-02 05:47:00,,0829.1,4.99,0.00,30.2,29.2,00.0,39.2,31.7,08.5,0000.0,0001.20,0000.66,0000.36
2021-12-02 05:48:00,,0829.1,5.00,0.00,30.2,29.2,00.0,39.2,31.8,08.5,0000.0,0001.18,0000.64,0000.36
2021-12-02 05:49:00,,0829.1,5.01,0.00,30.2,29.2,00.0,39.2,31.7,08.4,0000.0,0001.54,0000.66,0000.36
2021-12-02 05:50:00,,0829.1,4.99,0.00,30.1,29.2,00.0,39.2,31.7,08.4,0000.0,0001.68,0000.66,0000.36
2021-12-02 05:51:00,,0829.1,5.01,0.00,30.1,29.1,00.0,39.2,31.7,08.4,0000.0,0002.16,0000.66,0000.35
2021-12-02 05:52:00,,0829.1,5.00,0.00,30.1,29.1,00.0,39.2,31.7,08.4,0000.0,0002.98,0000.62,0000.33
2021-12-02 05:53:00,,0829.2,4.99,0.00,30.1,29.1,00.0,39.2,31.7,08.4,0000.0,0003.09,0000.63,0000.32
2021-12-02 05:54:00,,0829.2,5.00,0.00,30.1,29.1,00.0,39.2,31.7,08.4,0000.0,0002.99,0000.60,0000.32
2021-12-02 05:55:00,,0829.2,5.00,0.00,30.1,29.1,00.0,39.2,31.7,08.4,0000.0,0003.01,0000.61,0000.31
2021-12-02 05:56:00,,0829.3,5.02,0.00,30.1,29.1,00.0,39.2,31.7,08.4,0000.0,0003.05,0000.59,0000.30
2021-12-02 05:57:00,,0829.3,4.99,0.00,30.1,29.1,00.0,39.2,31.8,08.4,0000.0,0003.06,0000.56,0000.29
2021-12-02 05:58:00,,0829.2,5.00,0.00,30.1,29.1,00.0,39.2,31.7,08.3,0000.0,0003.11,0000.56,0000.28
2021-12-02 05:59:00,,0829.3,5.01,0.00,30.1,29.1,00.0,39.2,31.7,08.3,0000.0,0003.13,0000.57,0000.28
